Regional Weather Roundup
Issued by NWS State College, PA

Home | Current Version | Previous Version | Text Only | Print | Product List | Glossary Off
Versions: 1 2 3 4 5 6 7 8 9 10 11 12 13 14 15 16 17 18 19 20 21 22 23 24 25 26 27 28 29 30 31 32 33 34 35 36 37 38 39 40 41 42 43 44 45 46 47 48 49 50

000
ASUS41 KCTP 250910
RWRCTP

REGIONAL WEATHER ROUNDUP
NATIONAL WEATHER SERVICE STATE COLLEGE PA
500 AM EDT WED MAY 25 2016

Note: "fair" indicates few or no clouds below 12,000 feet with no
significant weather and/or obstructions to visibility.

* = STATION THAT DOES NOT REPORT PRECIPITATION /E.G. RAIN...SNOW...ETC/
    THUNDER OR FOG.

PAZ002>004-007>009-013>016-020>023-029>032-251000-
WESTERN PENNSYLVANIA

CITY           SKY/WX    TMP DP  RH WIND       PRES   REMARKS
ERIE           CLEAR     64  44  48 S9        30.05S
MEADVILLE      CLEAR     56  46  69 S6        30.10R
FRANKLIN*      CLEAR     55  45  67 SW6       30.14R
NEW CASTLE     FAIR      50  48  93 CALM      30.12R
BEAVER COUNTY  NOT AVBL
BUTLER*        CLEAR    N/A N/A N/A CALM      30.14S
PITTSBURGH INT CLEAR     61  48  62 CALM      30.12R
PITTSBURGH     CLEAR     60  48  64 SW7       30.12R
INDIANA*       MOCLDY    52  50  93 CALM      30.17R
LATROBE        CLEAR     50  50 100 CALM      30.14S
WASHINGTON CO* CLEAR     50  48  93 CALM      30.14R
$$

PAZ004>006-010>012-017>019-024>028-033>037-041-042-045-046-049>053-251000-
CENTRAL PENNSYLVANIA

CITY           SKY/WX    TMP DP  RH WIND       PRES   REMARKS
BRADFORD       CLEAR     41  37  86 CALM      30.12R
DUBOIS         CLEAR     53  39  59 CALM      30.12R
CLEARFIELD     CLEAR     49  43  80 CALM      30.13R
JOHNSTOWN      CLEAR     56  44  64 SW6       30.15S
ALTOONA        CLEAR     58  48  69 S8        30.14R
STATE COLLEGE  CLEAR     54  44  68 SW3       30.11R
WILLIAMSPORT   CLEAR     48  43  82 CALM      30.08R
SELINSGROVE    CLEAR     48  46  93 CALM      30.09R
FT INDIANTOWN  CLEAR     48  48 100 E2        30.08R
CAPITAL CITY   CLEAR     61  47  59 NW5       30.08R
HARRISBURG     PTCLDY    53  49  86 CALM      30.07R
YORK           CLEAR     54  48  80 CALM      30.08R
$$

PAZ038>040-043-044-047-048-054-055-060>062-067>071-251000-
EASTERN PENNSYLVANIA

CITY           SKY/WX    TMP DP  RH WIND       PRES   REMARKS
SCRANTON       CLEAR     51  42  71 E3        30.07R
MOUNT POCONO   CLEAR     40  40 100 CALM      30.08S
ALLENTOWN      CLEAR     52  49  89 CALM      30.06R
QUAKERTOWN*    SUNNY     48  46  93 CALM      30.07R
READING        CLEAR     52  48  86 CALM      30.06R
LANCASTER      CLEAR     56  48  74 W3        30.07R
COATESVILLE    SUNNY     55  48  76 W7        30.08S
POTTSTOWN      CLEAR     50  49  96 CALM      30.07S FOG
BLUE BELL      CLEAR     50  50 100 CALM      30.05S
DOYLESTOWN     CLEAR     51  50  96 CALM      30.05R
WILLOW GROVE   NOT AVBL
NORTH PHILA    CLEAR     58  53  84 CALM      30.06R
PHILADELPHIA   PTCLDY    59  52  77 CALM      30.06S
$$




USA.gov is the U.S. government's official web portal to all federal, state and local government web resources and services.